Simultaneous Nadir Overpasses (SNOs) Predictions

Prediction of SNOs between GOES-15 and METOP-A Satellite Orbit:

Table of predicted SNOs for the next 14.0 days since TLE Epoch: 10/18/2019
Index Date Time (GOES-15) GOES-15 Lat,Lon METOP-A Lat,Lon Distance(km) Time Diff (sec)
1 10/19/2019 05:14:54 0.27,-128.17 1.19,-124.13 460.61 80
2 10/20/2019 17:31:06 -0.27,-128.22 -0.14,-128.71 57.20 80
3 10/23/2019 05:32:09 0.27,-128.26 0.26,-128.37 12.16 80
4 10/25/2019 17:30:23 -0.27,-128.31 -0.35,-127.98 38.47 80
5 10/27/2019 05:49:24 0.28,-128.34 -0.66,-132.60 486.20 80
6 10/28/2019 05:26:05 0.28,-128.35 0.41,-127.62 83.02 80
7 10/29/2019 17:44:58 -0.28,-128.38 0.57,-132.22 437.25 80
8 10/30/2019 17:26:59 -0.27,-128.39 -0.51,-127.23 132.09 80
9 11/01/2019 05:46:00 0.27,-128.41 -0.50,-131.86 392.98 80




NCC Satellite Simultaneous Nadir Overpasses (SNOs) Prediction Service
